Location: ????
(30.1475°N, 31.1342°E)
Time: 08:11:54
(UTC+00:00)

Meteor 1-14 Rocket - Pass Details

Date: 06 April 2023
Orbit: 834 x 918 km, 81.3° (Epoch: 03 June)

Event Time Altitude Azimuth Distance (km) Brightness Sun altitude
Rises 01:32:23 0° 341° (NNW) 3,404 7.4 -27.1°
Reaches altitude 10° 01:34:55 10° 334° (NNW) 2,475 6.6 -26.6°
Enters shadow 01:36:33 19° 324° (NW) 1,939 5.9 -26.3°
